Other Public Products
Issued by NWS Charleston, SC

Current Version | Previous Version | Graphics & Text | Print | Product List | Glossary On
Versions: 1 2 3 4 5 6 7 8 9 10 11 12 13 14 15 16 17 18 19 20 21 22 23 24 25 26 27 28 29 30 31 32 33 34 35 36 37 38 39 40 41 42 43 44 45 46 47 48 49 50
000 FPUS82 KCHS 230712 OPUCHS TEST...KCHS/KSAV Gateway Observations...TEST National Weather Service Charleston SC 300 AM EDT WED MAY 23 2018 NOTE: "fair" indicates few or no clouds below 12,000 feet with no significant weather and/or obstructions to visibility. SCZ050-WAZ558-NCZ071-TXZ119-213-PAZ071-DCZ001-FLZ074-172-MI076- NYZ176-178-MAZ016-IL014-TNZ027-NJZ106-GAZ044-MD014-230800- ...Gateway Observations for Charleston International... CITY SKY/WX TMP DP RH WIND PRES REMARKS Chas Airport FAIR 72 70 93 SW5 30.07F Seattle PTCLDY 64 49 57 N10 29.83F Charlotte CLOUDY 72 69 90 SW5 30.07F Dallas DFW PTCLDY 74 67 78 SE3 29.98S Dallas Love PTCLDY 76 68 76 SE8 29.99S Philladelphia CLOUDY 62 61 96 E5 29.93F FOG Wash National CLOUDY 69 66 90 CALM 29.92S Baltimore FAIR 66 66 100 CALM 29.91F Miami MOCLDY 77 73 87 E12G20 30.04F Detroit FAIR 55 52 89 N5 30.07S Newark LGT RAIN 58 57 97 SW3 29.93F FOG Laguardia LGT RAIN 59 56 89 CALM 29.91F FOG J F K CLOUDY 58 57 97 SW6 29.94S Boston Logan CLOUDY 54 51 90 SW7 29.88F Ft. Lauderdale FAIR 77 74 90 SE13 30.04F Chicago O`Hare FAIR 53 50 89 CALM 30.10S Chicago Midway FAIR 54 50 86 SW3 30.11R Houston Bush FAIR 71 71 100 CALM 29.99S Houston Hobby FAIR 73 73 100 SE3 29.98S Nashville FAIR 67 65 93 CALM 30.04F Atlanta CLOUDY 69 67 93 SE5 30.05F FOG $$ GAZ044-118-TXZ119-213-NCZ071-DCZ001-MDZ014-506-PAZ021-071-NJZ106- NYZ176-178-MAZ106-OHZ011-021-055-MIZ076-KYZ091-ILZ014-INZ047- MNZ060-ONZ431-230800- ...Gateway Observations for Savannah International... CITY SKY/WX TMP DP RH WIND PRES REMARKS Savannah Arpt FAIR 72 71 97 S5 30.08F Atlanta CLOUDY 69 67 93 SE5 30.05F FOG Charlotte CLOUDY 72 69 90 SW5 30.07F Dallas DFW PTCLDY 74 67 78 SE3 29.98S Houston Bush FAIR 71 71 100 CALM 29.99S Wash National CLOUDY 69 66 90 CALM 29.92S Wash Dulles CLOUDY 68 68 100 S5 29.92F Baltimore FAIR 66 66 100 CALM 29.91F Philadelphia CLOUDY 62 61 96 E5 29.93F FOG Newark LGT RAIN 58 57 97 SW3 29.93F FOG Laguardia LGT RAIN 59 56 89 CALM 29.91F FOG J F K CLOUDY 58 57 97 SW6 29.94S Boston CLOUDY 54 51 90 SW7 29.88F Pittsburg MOCLDY 62 62 100 W5 29.99F Akron CLOUDY 60 55 83 N9 30.04R Cleveland CLOUDY 58 55 90 N6 30.07R Cincinnati FAIR 67 58 72 NE7 30.06R Columbus MOCLDY 64 63 98 MISG 30.03S Detroit FAIR 55 52 89 N5 30.07S Chicago O`Hare FAIR 53 50 89 CALM 30.10S Minneapolis MOCLDY 62 59 90 SE5 30.07F Indianapolis FAIR 62 56 80 NE6 30.08R Toronto Canada MOCLDY 57 54 88 N10G18 29.99R $$

USA.gov is the U.S. government's official web portal to all federal, state and local government web resources and services.